Location: Newark
(43.6583°N, 1.6617°E)
Time: 08:53:50
(UTC+00:00)

Vanguard 2 Rocket - Pass Details

Date: 19 August 2019
Orbit: 554 x 3326 km, 32.9° (Epoch: 24 September)

Event Time Altitude Azimuth Distance (km) Brightness Sun altitude
Exits shadow 00:30:55 10° 129° (SE) 4,924 10.4 -32.9°
Maximum altitude 00:32:06 10° 124° (SE) 5,020 10.4 -32.9°
Drops below altitude 10° 00:32:08 10° 124° (SE) 5,022 10.4 -32.9°
Sets 00:45:18 0° 85° (E) 6,959 11.6 -32.4°
